Location: Antioch
(38.0049°N, 121.8058°W)
Time: 02:33:02
(UTC+00:00)

Cosmos 1733 Rocket - Pass Details

Date: 11 February 2026
Orbit: 596 x 621 km, 82.5° (Epoch: 13 March)

Event Time Altitude Azimuth Distance (km) Brightness Sun altitude
Exits shadow 13:11:22 34° 344° (NNW) 1,012 4.0 -22.2°
Drops below altitude 10° 13:14:00 10° 359° (N) 1,971 5.6 -21.7°
Sets 13:16:15 0° 3° (N) 2,875 6.5 -21.3°
